Charlotte, NC

2:32 PM EST on February 21, 2017 (GMT -0500)
Charlotte-Douglas International

Weather History for KCLT - December, 2012

Change the Weather History Date:

Sunday, December 30, 2012

  Actual Average Record
Temperature  
Mean Temperature 36 °F 40 °F  
Max Temperature 48 °F 50 °F 76 °F (1984)
Min Temperature 24 °F 30 °F -5 °F (1880)
Degree Days  
Heating Degree Days 29 25  
Month to date heating degree days 468 676  
Since 1 July heating degree days 1154 1312  
Cooling Degree Days 0 0  
Month to date cooling degree days 0 0  
Year to date cooling degree days 1790 1517  
Moisture  
Dew Point 20 °F    
Average Humidity 50    
Maximum Humidity 69    
Minimum Humidity 31    
Precipitation  
Precipitation 0.00 in 0.10 in 2.03 in (2015)
Month to date precipitation 3.84 3.15  
Year to date precipitation 33.69 41.53  
Snow  
Snow 0.00 in 0.10 in 4.90 in (1882)
Month to date snowfall 0.0 0.3  
Since 1 July snowfall 0.0 0.4  
Snow Depth 0.00 in    
Sea Level Pressure  
Sea Level Pressure 30.29 in    
Wind  
Wind Speed 4 mph (West)    
Max Wind Speed 13 mph    
Max Gust Speed 21 mph    
Visibility 10 miles    
Events      
T = Trace of Precipitation, MM = Missing Value Source: NWS Daily Summary

Daily Weather History Graph

Daily Weather History Graph

Search for Another Location

Airport or City:

Trip Planner

Search our weather history database for the weather conditions in past years. The results will help you decide how hot, cold, wet, or windy it might be!

Date:

Astronomy

Dec. 30, 2012 Rise Set
Actual Time 7:31 AM EST 5:21 PM EST
Civil Twilight 7:03 AM EST 5:49 PM EST
Nautical Twilight 6:32 AM EST 6:21 PM EST
Astronomical Twilight 6:01 AM EST 6:52 PM EST
Moon 7:45 PM EST (12/30) 8:45 AM EST (12/30)
Length of Visible Light 10h 45m
Length of Day
9h 49m
Waning Gibbous, 95% of the Moon is Illuminated
Dec 30
Waning Gibbous
Jan 4
Last Quarter
Jan 11
New
Jan 18
First Quarter
Jan 26
Full

Hourly Weather History & Observations

Time (EST) Temp. Windchill Dew Point Humidity Pressure Visibility Wind Dir Wind Speed Gust Speed Precip Events Conditions
12:52 AM 35.1 °F 29.3 °F 23.0 °F 61% 30.06 in 10.0 mi NW 6.9 mph - N/A   Clear
1:52 AM 35.1 °F 28.6 °F 21.0 °F 57% 30.09 in 10.0 mi NW 8.1 mph - N/A   Clear
2:52 AM 34.0 °F 26.6 °F 19.9 °F 56% 30.11 in 10.0 mi NW 9.2 mph - N/A   Clear
3:52 AM 34.0 °F 28.0 °F 19.0 °F 54% 30.14 in 10.0 mi WNW 6.9 mph - N/A   Clear
4:52 AM 30.9 °F 27.5 °F 19.0 °F 61% 30.16 in 10.0 mi NW 3.5 mph - N/A   Clear
5:52 AM 30.0 °F 25.2 °F 19.9 °F 66% 30.19 in 10.0 mi NW 4.6 mph - N/A   Clear
6:52 AM 28.9 °F 22.8 °F 19.9 °F 69% 30.24 in 10.0 mi WNW 5.8 mph - N/A   Clear
7:52 AM 28.9 °F - 19.9 °F 69% 30.28 in 8.0 mi Calm Calm - N/A   Clear
8:52 AM 35.1 °F - 21.0 °F 57% 30.31 in 9.0 mi Calm Calm - N/A   Clear
9:52 AM 39.0 °F 34.8 °F 19.9 °F 46% 30.35 in 10.0 mi Variable 5.8 mph - N/A   Clear
10:52 AM 41.0 °F - 18.0 °F 40% 30.38 in 10.0 mi Calm Calm - N/A   Clear
11:52 AM 42.1 °F 39.2 °F 19.0 °F 40% 30.37 in 10.0 mi Variable 4.6 mph - N/A   Partly Cloudy
12:52 PM 45.0 °F 40.6 °F 18.0 °F 34% 30.36 in 10.0 mi WSW 8.1 mph - N/A   Scattered Clouds
1:52 PM 46.0 °F 44.8 °F 19.0 °F 34% 30.34 in 10.0 mi Variable 3.5 mph - N/A   Partly Cloudy
2:52 PM 46.9 °F - 19.0 °F 33% 30.34 in 10.0 mi Variable 3.5 mph - N/A   Partly Cloudy
3:52 PM 46.9 °F - 17.1 °F 30% 30.34 in 10.0 mi WSW 4.6 mph - N/A   Scattered Clouds
4:52 PM 45.0 °F 42.6 °F 17.1 °F 33% 30.35 in 10.0 mi WSW 4.6 mph - N/A   Scattered Clouds
5:52 PM 39.9 °F 37.8 °F 18.0 °F 41% 30.37 in 10.0 mi SSW 3.5 mph - N/A   Scattered Clouds
6:52 PM 39.9 °F 36.7 °F 21.0 °F 47% 30.39 in 10.0 mi WSW 4.6 mph - N/A   Partly Cloudy
7:52 PM 37.9 °F 35.5 °F 21.9 °F 53% 30.40 in 10.0 mi South 3.5 mph - N/A   Partly Cloudy
8:52 PM 36.0 °F 32.1 °F 23.0 °F 59% 30.40 in 10.0 mi SSW 4.6 mph - N/A   Scattered Clouds
9:52 PM 32.0 °F - 21.0 °F 64% 30.40 in 10.0 mi Calm Calm - N/A   Scattered Clouds
10:52 PM 36.0 °F - 21.0 °F 55% 30.39 in 10.0 mi Calm Calm - N/A   Scattered Clouds
11:52 PM 24.1 °F - 19.9 °F 84% 30.39 in 9.0 mi Calm Calm - N/A   Mostly Cloudy